Probability
32 32 26 23 23 19 16 10 3 3 3 3 0 3 3 0 0 0 0 0 0 0 0 0 0 0 0 0 0 0 0 0 0 0 0 0 0 0 0 0 0 0 0
26 29 26 23 23 19 16 16 10 6 0 0 0 0 0 0 0 0 0 0 0 0 0 0 0 0 0 0 0 0 0 0 0 0 0 0 0 0 0 0 0 0 0
32 35 32 23 19 23 19 16 13 10 6 0 0 0 0 0 0 0 0 0 0 0 0 0 0 0 0 0 0 0 0 0 0 0 0 0 0 0 0 0 0 0 0
35 35 29 26 19 19 19 16 13 13 13 6 3 3 3 3 3 0 0 0 0 0 0 0 0 0 0 0 0 0 0 0 0 0 0 0 0 0 0 0 0 0 0
29 29 29 23 19 16 16 16 13 13 13 13 10 6 0 0 3 3 3 0 0 0 0 0 0 0 0 0 0 0 0 0 0 0 0 0 0 0 0 0 0 0 0
23 23 23 23 19 19 19 16 10 10 10 10 10 13 6 6 3 0 3 3 0 0 0 0 0 0 0 0 0 0 0 0 0 0 0 0 0 0 0 0 0 0 0
23 23 23 19 19 16 13 10 6 10 10 10 10 10 10 10 6 0 0 3 3 0 0 0 0 3 0 0 0 0 0 0 0 0 0 0 0 0 0 0 0 0 0
13 16 16 13 10 10 10 10 10 6 13 10 10 10 10 6 3 0 0 0 0 0 0 0 0 0 0 0 0 0 0 0 0 0 0 0 0 0 0 0 0 0 0
13 10 10 10 10 10 10 10 10 6 6 10 6 3 3 3 3 0 0 0 0 0 0 0 0 0 0 0 0 0 0 0 0 0 0 0 0 0 0 0 0 0 0
10 10 10 6 6 6 6 6 6 3 3 3 0 0 0 3 3 0 0 0 0 0 0 0 0 0 0 0 0 0 0 0 0 0 0 0 0 0 0 0 0 0 0
3 3 3 3 3 0 0 3 3 3 0 0 0 0 0 0 0 0 0 0 0 0 0 0 0 0 0 0 0 0 0 0 0 0 0 0 0 0 0 0 0 0 0
0 0 0 0 0 0 0 0 0 0 0 0 0 0 0 0 0 0 0 0 0 0 0 0 0 0 0 0 0 0 0 0 0 0 0 0 0 0 0 0 0 0 0
0 0 0 0 0 0 0 0 0 0 0 0 0 0 0 0 0 0 0 0 0 0 0 0 0 0 0 0 0 0 0 0 0 0 0 0 0 0 0 0 0 0 0
3 3 0 0 0 0 0 0 0 0 0 0 0 0 0 0 0 0 0 0 0 0 0 0 0 0 0 0 0 0 0 0 0 0 0 0 0 0 0 0 0 0 0
6 3 3 0 0 0 0 0 0 0 0 0 0 0 0 0 0 0 0 0 0 0 0 0 0 0 0 0 0 0 0 0 0 0 0 0 0 0 0 0 0 0 0
0 0 3 3 3 0 0 0 0 0 0 0 0 0 0 0 0 0 0 0 0 0 0 0 0 0 0 0 0 0 0 0 0 0 0 0 0 0 0 0 0 0 0
0 0 0 0 0 0 0 0 0 0 0 0 0 0 0 0 0 0 0 0 0 0 0 0 0 0 0 0 0 0 0 0 0 0 0 0 0 0 0 0 0 0 0
0 0 0 0 0 0 0 0 0 0 0 0 0 0 0 0 0 0 0 0 0 0 0 0 0 0 0 0 0 0 0 0 0 0 0 0 0 0 0 0 0 0 0
0 0 0 0 0 0 0 0 0 0 0 0 0 0 0 0 0 0 0 0 0 0 0 0 0 0 0 0 0 0 0 0 0 0 0 0 0 0 0 0 0 0 0
0 0 0 0 0 0 0 0 0 0 0 0 0 0 0 0 0 0 0 0 0 0 0 0 0 0 0 0 0 0 0 0 0 0 0 0 0 0 0 0 0 0 0
0 0 0 0 0 0 0 0 0 0 0 0 0 0 0 0 0 0 0 0 0 0 0 0 0 0 0 0 0 0 0 0 0 0 0 0 0 0 0 0 0 0 0
0 0 0 0 0 0 0 0 0 0 0 0 0 0 0 0 0 0 0 0 0 0 0 0 0 0 0 0 0 0 0 0 0 0 0 0 0 0 0 0 0 0 0
0 0 0 0 0 0 0 0 0 0 0 0 0 0 0 0 0 0 0 0 0 0 0 0 0 0 0 0 0 0 0 0 0 0 0 0 0 0 0 0 0 0 0
0 0 0 0 0 0 0 0 0 0 0 0 0 0 0 0 0 0 0 0 0 0 0 0 0 0 0 0 0 0 0 0 0 0 0 0 0 0 0 0 0 0 0
0 0 0 0 0 0 0 0 0 0 0 0 0 0 0 0 0 0 0 0 0 0 0 0 0 0 0 0 0 0 0 0 0 0 0 0 0 0 0 0 0 0 0
0 0 0 0 0 0 0 0 0 0 0 0 0 0 0 0 0 0 0 0 0 0 0 0 0 0 0 0 0 0 0 0 0 0 0 0 0 0 0 0 0 0 0
Height
5866 5866 5866 5866 5866 5866 5867 5867 5868 5869 5869 5870 5870 5871 5872 5872 5873 5873 5874 5874 5875 5876 5876 5877 5877 5878 5878 5878 5878 5878 5878 5877 5876 5876 5874 5873 5872 5871 5869 5868 5866 5864 5863
5864 5864 5864 5864 5864 5864 5864 5865 5865 5865 5866 5866 5866 5867 5867 5867 5868 5869 5869 5870 5870 5871 5871 5871 5871 5872 5872 5872 5872 5872 5872 5871 5870 5869 5868 5866 5865 5864 5862 5860 5858 5857 5855
5863 5862 5862 5862 5862 5861 5861 5861 5862 5862 5862 5862 5862 5862 5863 5863 5863 5864 5864 5865 5865 5865 5866 5866 5866 5866 5866 5866 5866 5866 5865 5864 5863 5862 5861 5859 5858 5857 5855 5853 5851 5849 5846
5861 5860 5860 5859 5859 5859 5858 5858 5858 5858 5858 5858 5858 5858 5858 5858 5859 5859 5859 5859 5859 5859 5860 5860 5860 5860 5860 5860 5859 5859 5858 5857 5856 5855 5854 5852 5850 5849 5847 5845 5843 5840 5838
5858 5857 5857 5856 5856 5855 5855 5855 5854 5854 5854 5854 5853 5853 5853 5853 5854 5854 5854 5854 5854 5854 5854 5854 5854 5854 5853 5853 5852 5852 5851 5850 5849 5847 5845 5844 5842 5840 5839 5836 5834 5831 5829
5855 5854 5854 5853 5852 5852 5851 5851 5850 5850 5850 5849 5849 5848 5848 5848 5848 5848 5848 5848 5848 5848 5847 5847 5847 5847 5846 5846 5845 5844 5843 5842 5841 5839 5837 5836 5834 5832 5830 5827 5825 5822 5819
5851 5850 5850 5849 5848 5847 5847 5846 5845 5845 5845 5844 5844 5843 5843 5843 5842 5842 5843 5842 5842 5841 5841 5841 5840 5840 5839 5839 5838 5837 5835 5834 5833 5831 5829 5827 5825 5823 5821 5818 5816 5812 5809
5847 5846 5845 5845 5844 5843 5842 5842 5841 5840 5840 5839 5839 5838 5838 5837 5837 5837 5836 5836 5835 5835 5834 5834 5834 5833 5832 5832 5830 5829 5828 5827 5825 5823 5821 5819 5816 5814 5811 5809 5806 5802 5799
5842 5841 5840 5840 5839 5838 5837 5837 5836 5835 5834 5834 5833 5832 5832 5831 5831 5830 5830 5829 5829 5828 5827 5827 5826 5826 5825 5824 5823 5822 5821 5819 5817 5815 5812 5810 5807 5805 5802 5798 5795 5791 5788
5837 5836 5835 5835 5834 5833 5832 5831 5830 5829 5829 5828 5827 5826 5825 5825 5824 5824 5823 5822 5822 5821 5821 5820 5820 5819 5818 5817 5816 5814 5813 5811 5809 5807 5804 5801 5798 5795 5792 5788 5785 5781 5777
5832 5831 5830 5829 5828 5827 5826 5825 5825 5824 5823 5822 5821 5820 5819 5818 5818 5817 5817 5816 5815 5814 5814 5813 5812 5811 5810 5809 5808 5806 5804 5802 5800 5798 5795 5792 5788 5785 5781 5778 5774 5770 5766
5826 5825 5824 5823 5822 5821 5820 5819 5818 5817 5816 5815 5814 5813 5812 5812 5811 5810 5810 5809 5808 5808 5807 5806 5805 5804 5803 5801 5800 5798 5796 5794 5791 5788 5785 5782 5778 5775 5771 5767 5764 5759 5755
5819 5818 5817 5816 5815 5814 5813 5812 5811 5810 5810 5809 5807 5806 5805 5804 5804 5803 5803 5802 5801 5800 5799 5798 5797 5796 5795 5793 5791 5789 5787 5784 5782 5779 5775 5772 5768 5764 5761 5757 5753 5749 5744
5811 5810 5810 5809 5808 5807 5806 5805 5804 5803 5802 5801 5800 5799 5798 5797 5797 5796 5795 5794 5794 5793 5792 5791 5790 5788 5787 5784 5782 5780 5778 5775 5772 5769 5765 5762 5758 5755 5751 5747 5743 5738 5734
5803 5802 5802 5801 5800 5799 5798 5798 5797 5796 5795 5794 5793 5792 5791 5790 5789 5788 5787 5787 5786 5785 5784 5783 5781 5780 5778 5776 5773 5771 5769 5766 5763 5760 5756 5753 5749 5745 5741 5737 5733 5729 5725
5794 5793 5793 5792 5792 5791 5790 5789 5788 5788 5787 5786 5785 5785 5783 5782 5781 5781 5780 5779 5778 5777 5776 5774 5773 5771 5769 5767 5765 5762 5760 5757 5754 5750 5747 5743 5740 5736 5732 5728 5724 5720 5716
5785 5784 5784 5783 5783 5782 5782 5781 5780 5779 5779 5778 5777 5776 5775 5774 5774 5773 5772 5771 5770 5769 5768 5766 5764 5762 5760 5758 5756 5754 5751 5748 5745 5741 5738 5734 5731 5727 5724 5720 5716 5712 5708
5775 5775 5774 5774 5773 5773 5772 5772 5771 5770 5770 5769 5769 5768 5767 5767 5766 5765 5764 5763 5762 5761 5759 5758 5756 5754 5752 5750 5747 5745 5742 5739 5736 5733 5729 5726 5722 5719 5715 5711 5708 5704 5700
5765 5765 5764 5764 5763 5763 5762 5762 5762 5762 5761 5761 5760 5760 5759 5758 5757 5757 5756 5755 5754 5752 5751 5749 5747 5745 5743 5741 5738 5736 5733 5730 5727 5724 5721 5717 5714 5710 5707 5703 5700 5696 5692
5755 5755 5755 5754 5754 5753 5753 5752 5752 5752 5752 5752 5752 5751 5750 5750 5749 5748 5748 5747 5745 5744 5742 5740 5738 5736 5734 5732 5729 5727 5724 5721 5718 5715 5712 5709 5705 5702 5698 5695 5691 5688 5684
5746 5745 5745 5745 5745 5744 5744 5744 5744 5744 5744 5743 5743 5743 5742 5742 5741 5740 5739 5738 5737 5735 5733 5731 5729 5727 5725 5723 5721 5718 5716 5713 5710 5707 5704 5700 5697 5694 5690 5687 5683 5680 5676
5737 5736 5736 5736 5736 5735 5735 5735 5735 5735 5735 5735 5734 5734 5734 5734 5733 5732 5731 5730 5728 5726 5724 5722 5721 5719 5716 5714 5712 5709 5707 5704 5701 5698 5695 5692 5689 5685 5682 5679 5676 5672 5669
5728 5728 5728 5727 5727 5727 5727 5727 5727 5727 5727 5727 5727 5726 5726 5726 5725 5724 5722 5721 5719 5717 5715 5713 5711 5709 5707 5705 5703 5700 5698 5695 5692 5689 5686 5683 5681 5678 5675 5672 5668 5665 5662
5720 5720 5720 5720 5720 5720 5720 5720 5720 5720 5720 5720 5720 5719 5718 5718 5717 5715 5714 5712 5710 5708 5706 5704 5702 5700 5698 5695 5693 5691 5688 5686 5683 5680 5678 5675 5673 5670 5667 5664 5661 5658 5655
5713 5713 5713 5713 5713 5713 5713 5713 5713 5713 5713 5712 5712 5711 5710 5709 5708 5707 5705 5703 5701 5699 5697 5695 5693 5691 5689 5687 5684 5682 5679 5677 5675 5672 5670 5667 5665 5662 5660 5657 5654 5651 5647
5707 5707 5708 5708 5708 5708 5707 5707 5707 5706 5706 5705 5704 5703 5702 5701 5699 5698 5696 5694 5692 5690 5688 5686 5684 5682 5680 5677 5675 5673 5671 5668 5666 5664 5662 5659 5657 5654 5652 5649 5646 5643 5640
Wind_Speed
5 4 5 6 7 8 8 9 10 12 13 13 14 16 16 17 16 16 16 16 17 19 19 19 19 19 19 20 20 20 20 21 21 21 22 23 23 24 25 26 27 27 28
6 6 6 6 7 8 9 10 11 12 13 14 15 15 16 17 17 17 17 17 18 19 19 19 20 20 20 21 22 22 22 23 23 23 24 25 25 26 27 28 29 30 30
7 7 7 8 8 9 9 10 11 12 12 13 14 14 15 16 17 17 18 19 19 20 21 21 21 21 22 23 23 23 23 24 25 25 26 27 27 28 29 29 30 31 33
8 8 9 9 9 10 10 11 11 12 12 13 14 15 16 16 18 18 19 18 19 20 22 22 23 23 23 25 25 24 25 26 27 27 28 29 30 30 30 31 32 33 33
10 10 10 10 10 10 11 12 13 13 14 15 16 16 16 17 18 19 20 20 21 22 23 23 24 24 24 25 25 26 26 27 28 29 29 30 30 31 31 32 33 34 35
12 12 11 11 11 12 12 13 14 14 15 15 16 17 17 18 19 20 20 20 21 21 21 22 23 24 24 24 25 26 27 27 28 28 29 30 31 32 32 33 33 35 36
14 14 13 13 13 13 14 14 14 15 16 17 17 17 18 19 19 19 20 21 21 21 21 22 23 24 25 26 26 26 26 27 27 28 29 30 31 32 33 34 35 37 39
15 15 15 15 15 15 16 15 15 16 18 19 19 19 19 20 20 21 22 22 23 23 23 23 23 24 25 25 26 27 27 27 28 29 29 30 31 33 34 36 37 38 39
16 16 16 16 17 17 17 16 17 17 18 19 19 20 21 21 22 22 23 23 23 23 24 24 23 24 25 25 26 26 27 27 28 29 30 31 32 34 35 36 38 40 42
18 17 17 17 18 18 19 18 18 18 19 19 20 21 21 21 21 22 23 23 23 23 24 24 24 24 25 25 25 27 27 28 28 30 32 33 34 36 37 37 39 41 42
19 19 19 19 19 19 19 19 19 20 20 20 21 21 21 22 22 22 23 23 23 24 24 24 24 25 25 25 26 27 28 28 29 31 33 35 36 36 37 38 39 40 42
22 21 22 21 21 21 21 21 20 21 21 21 21 21 22 22 22 22 22 22 22 23 23 24 24 25 26 27 28 28 29 30 31 32 34 36 36 37 37 38 39 40 41
24 24 24 23 23 23 22 22 22 23 23 22 23 23 23 23 23 22 22 22 23 24 24 25 26 27 28 28 29 29 30 30 32 33 35 36 36 36 36 37 38 39 40
27 26 25 25 24 24 23 23 24 24 24 23 23 23 23 23 23 24 24 24 24 25 25 26 27 28 28 29 30 30 30 31 32 33 34 34 34 35 36 37 37 37 38
29 28 27 27 26 26 25 25 25 25 25 25 25 25 25 25 25 25 24 24 24 25 26 26 27 28 28 29 29 30 31 32 32 33 33 33 34 35 35 35 36 36 36
31 30 29 28 28 27 27 27 27 27 27 26 26 26 26 25 25 24 24 24 24 25 26 26 27 27 28 28 28 29 30 31 32 32 32 32 33 33 33 33 33 33 34
32 31 30 30 29 29 28 28 28 28 28 28 27 26 25 25 25 25 25 25 25 25 26 26 27 27 28 28 29 30 30 31 31 32 32 32 32 32 32 32 32 32 33
33 32 31 31 31 30 30 29 29 28 27 27 26 26 25 25 25 25 25 25 26 25 26 26 27 28 28 29 30 30 30 30 30 32 32 32 32 32 32 32 32 32 31
33 32 31 31 31 31 31 30 29 28 28 27 26 26 26 26 26 25 25 26 26 26 26 27 28 29 30 30 30 29 29 30 30 31 32 31 31 32 32 31 31 31 31
32 32 31 30 30 29 29 29 28 28 28 27 27 26 26 25 25 25 25 25 26 26 27 28 28 29 29 28 28 29 29 30 30 31 31 31 31 32 31 30 30 30 29
31 30 29 29 28 28 27 27 27 27 27 27 26 25 25 25 25 25 26 26 26 27 28 28 28 28 28 28 29 30 31 31 31 31 31 32 31 30 29 29 29 28 28
28 27 27 26 26 26 26 26 25 25 25 25 24 24 24 24 25 25 26 26 27 27 28 28 28 28 29 30 30 31 32 31 31 31 31 30 29 28 28 28 27 27 27
26 26 25 25 24 24 24 24 24 23 22 22 23 23 24 25 25 25 26 27 28 28 29 29 29 29 30 31 31 31 31 31 31 31 30 28 28 27 27 27 27 27 26
22 22 22 22 22 22 22 22 21 21 21 22 24 24 24 25 26 27 28 29 30 30 30 29 30 30 30 30 31 31 31 30 30 29 28 27 27 27 27 27 27 27 27
19 18 18 18 19 19 20 20 20 21 22 23 24 25 25 26 27 28 29 29 29 29 28 28 29 29 29 30 30 30 29 29 28 28 27 27 27 27 27 27 27 27 27
15 15 15 15 16 16 17 18 19 20 22 23 24 25 26 27 27 27 27 27 27 27 27 28 28 29 29 29 29 28 28 28 28 27 27 27 27 27 27 27 27 27 28
Wind_Direction
292 269 255 251 249 247 246 244 247 249 249 251 251 250 251 252 252 253 255 256 256 255 255 257 258 258 259 262 263 266 267 269 270 273 276 278 279 278 278 279 281 281 282
298 280 269 268 265 260 254 252 253 253 253 253 254 255 254 255 252 255 256 257 256 257 257 259 260 259 260 264 265 266 269 272 275 275 277 280 281 281 280 282 282 283 283
304 292 285 279 275 271 266 261 261 261 260 256 253 255 255 254 254 256 259 259 258 258 258 259 260 262 264 267 268 268 269 273 276 276 280 281 283 283 282 282 283 284 284
304 296 289 284 279 272 268 267 266 264 263 260 258 259 257 255 254 257 260 261 263 262 260 260 262 265 267 268 270 271 272 275 277 279 281 280 282 284 284 284 284 285 286
297 296 293 286 282 278 272 270 266 265 265 267 265 263 259 258 260 260 260 262 263 265 265 264 264 265 268 270 271 273 275 276 277 279 281 281 282 284 285 286 286 286 287
290 291 293 292 287 282 278 273 269 267 268 270 269 266 263 263 261 260 261 262 264 266 266 265 266 268 269 271 274 275 276 278 278 279 281 281 282 284 286 287 287 287 289
287 285 287 289 288 287 285 281 278 274 272 270 269 267 266 263 261 263 265 265 265 266 267 268 268 269 272 273 274 276 279 280 280 281 282 282 283 283 285 287 288 290 290
287 285 283 283 284 284 284 282 280 278 275 273 271 269 268 266 266 266 266 266 266 267 267 270 270 271 274 275 276 279 280 281 283 283 283 284 284 285 286 288 289 289 290
289 286 284 284 285 283 282 281 280 280 280 276 274 272 269 268 268 268 269 269 269 271 271 272 272 271 273 276 278 279 280 282 283 284 285 286 287 287 289 290 290 291 292
290 289 286 286 285 282 281 281 282 281 279 279 279 276 273 270 269 269 271 270 270 271 272 273 274 275 278 279 281 282 284 284 285 287 288 288 289 289 289 290 291 292 293
288 289 288 287 286 285 283 281 280 280 279 278 278 277 275 272 272 272 273 274 272 273 273 273 274 275 277 278 281 284 285 286 287 289 290 291 290 290 289 290 292 293 294
285 287 287 286 284 283 282 281 280 280 281 280 278 279 277 274 273 272 273 275 275 275 275 274 275 276 277 279 281 284 286 287 289 290 291 291 291 291 291 292 294 295 296
283 284 284 284 282 281 280 279 279 279 280 279 279 279 278 275 273 272 272 274 276 277 278 278 278 279 280 281 283 285 286 289 290 291 293 293 293 293 293 295 296 297 297
283 283 283 282 281 280 279 279 279 278 278 278 278 277 276 275 273 271 272 273 275 278 279 279 279 281 281 283 284 286 288 290 292 293 294 293 294 295 296 297 298 299 299
281 282 281 280 279 279 279 278 277 278 279 278 277 277 277 275 273 271 271 275 277 279 279 279 280 281 283 285 286 287 289 290 291 293 294 294 295 296 297 298 301 302 301
280 280 280 279 279 278 277 276 277 276 276 276 275 276 276 274 273 274 276 277 278 279 280 281 281 284 286 286 287 289 290 289 291 293 294 295 296 297 299 300 301 302 303
278 278 278 278 277 277 276 276 276 275 274 274 275 276 275 271 272 274 275 277 278 279 281 282 283 284 286 286 287 289 290 292 294 295 296 296 297 298 299 300 301 303 304
277 277 277 277 276 276 275 274 273 274 274 273 273 274 274 273 272 274 275 276 277 279 282 283 284 285 285 286 289 290 291 294 296 297 297 297 297 298 299 300 301 303 304
276 275 276 275 274 274 274 273 272 271 271 272 273 274 273 272 272 274 275 278 280 281 282 284 285 286 286 286 289 291 292 294 295 296 297 298 298 298 299 299 301 302 304
273 273 273 273 273 273 272 271 270 269 270 271 273 272 271 270 271 275 277 279 280 281 283 285 286 287 287 286 288 291 292 293 294 296 297 298 299 299 299 299 301 303 305
271 272 272 271 271 270 269 268 268 268 268 269 270 271 270 270 272 274 276 278 280 282 284 285 286 286 285 287 289 290 291 292 294 295 296 297 298 299 299 300 302 303 305
269 270 270 269 268 268 267 267 267 267 267 267 267 269 271 271 273 275 277 279 282 284 285 285 285 284 285 287 288 290 291 292 293 294 296 297 297 298 300 301 302 303 305
268 267 266 267 266 265 264 263 264 264 263 264 266 268 268 270 274 276 280 282 284 284 284 285 285 285 287 287 289 290 290 291 292 293 294 295 297 299 300 302 303 304 305
266 264 263 263 263 262 261 261 263 264 264 265 268 269 272 275 277 278 280 281 282 283 284 285 286 287 287 287 288 289 290 291 291 291 292 294 296 298 299 301 302 303 303
262 260 260 260 260 258 259 260 262 264 266 268 271 273 276 278 280 281 282 283 283 285 285 285 286 287 288 288 289 290 290 290 291 291 293 294 296 297 298 300 301 302 302
256 257 258 259 260 262 263 265 267 268 270 272 275 277 279 281 283 283 283 285 286 286 286 287 288 289 290 290 290 290 290 290 291 292 294 294 295 297 298 299 300 301 302